STARLINK-1672, 46537

Orbit data source: Space-Track

STARLINK-1672, 46537 is a payload satellite owned by SpaceX/Seattle (US) in LEO that was launched on Tue, 06 Oct 2020 UTC via an FALCON 9 launch vehicle from the Air Force Eastern Test Range (AFETR). Payload-class satellites include a variety of spacecraft equipped with specific instruments for various scientific and technological missions. These include communications satellites like Starlink; space stations such as the ISS; scientific satellites like the Hubble; Earth observation satellites from companies like Planet Labs, Umbra, and HawkEye 360; GPS; miniature CubeSats for education and research; and military/defense satellites.

Loading next visibility...
Identifier
46537, 2020-070F
Orbit
LEO
Last TLE update
14 hours ago
Origin
Manufacturer
SpaceX/Seattle
Mission
Operational Commercial Communications
Bus & Motor
STARLINK, Unknown motor
Mass
260 kg wet, ~248 kg dry
Launch date (UTC)
2020-10-06 (5 years ago)
Launch vehicle
FALCON 9
Launch site
Air Force Eastern Test Range (AFETR)
Object type
Payload
Rocket body
Debris
Shape & HBR
Box + 1 Pan, 8.86 m
Radar Cross Section
13.562 m², Large (>1 m²)

Expand to show TLE details & history

TLE from 14 hours ago
0 STARLINK-1672
1 46537U 20070F   25181.50653754  .00000957  00000-0  83149-4 0  9996
2 46537  53.0548 228.7128 0001067  81.9566 278.1544 15.06395304261490
Epoch: 2025-06-30T12:09Z
TLE epoch observation values (Epoch: 2025-06-30T12:09:24.843Z)
Latitude
-0.00002°
Longitude
127.54391°
Altitude
548 km
Speed
7.589 km/s
True Right ascension
15h 14m 51s
True Declination
0° 00' 00"
Sunlit
Object was in full shadow at epoch
Visualization orbit readout
Latitude
-52.10696°
Longitude
18.89499°
Altitude
566.039 km
Speed
7.578 km/s
Apparent Right ascension
04h 32m 58s
Apparent Declination
-56° 54' 59"
Sunlit
Object is in daylight
Visualization observer readout
Local Sidereal Time
13:39:48
Azimuth
223.993° SW
Elevation
-57.392°
Doppler factor
1
Orbital elements
Apogee altitude
548.236 km
Perigee altitude
546.758 km
Semi-major axis
6,925.634 km
Eccentricity
0.00011
Inclination
53.0548°
RAAN
228.7128°
Arg. of periapsis
81.9566°
True anomaly
Unknown
Mean anomaly
278.1544°
Eccentric anomaly
Unknown
Mean motion
3.76577 °/min
Orbital period
95.6 mins
BSTAR
0.000083149
Loading maneuver chart data...
Loading SW <> Apogee altitude chart data...
Loading historical data...
Loading historical data...
Loading historical data...
Loading historical data...
Loading historical data...
Loading historical data...
Loading historical data...

STARLINK-1672 Visibility forecast

Observer location: undefined°, undefined°

Span
Click to sort rows by Start time (UTC) header in descending order
Start Az.
Max El. time (UTC)
Max El. Az.
Max El.
End time (UTC)
End Az.
6 mins2025-07-01 05:51:44.707Z224.586° SW2025-07-01 05:54:44.707Z68.845° E42.877°2025-07-01 05:57:44.707Z52.124° ENE
4 mins2025-07-01 07:32:44.707Z307.352° NW2025-07-01 07:33:44.707Z327.028° NNW20.327°2025-07-01 07:36:44.707Z22.583° NE
4 mins2025-07-01 10:54:44.707Z359.574° N2025-07-01 10:55:44.707Z19.375° NNE18.845°2025-07-01 10:58:44.707Z67.886° E
6 mins2025-07-01 12:33:44.707Z314.619° NW2025-07-01 12:35:44.707Z15.439° NNE44.527°2025-07-01 12:39:44.707Z126.914° SE
|